User: anonymous   Login
Location: Prague
(50.0830°N, 14.4670°E)
Time: 15:57:50
(UTC+01:00)
Language:

CUTE 1.7 + AOD 2 - Orbit

View from above orbital plane
View from above orbital plane
View from above satellite
View from above satellite

Ground track
Ground track

The orbit data is extracted from the following two-line orbital elements,

1 32785U 08021C   21331.78613584  .00000577  00000-0  67019-4 0  9994
2 32785  97.6321 304.4805 0012863 175.2537 184.8804 14.88906153736474
Epoch (UTC): 27 November 2021 18:52:02
Eccentricity: 0.0012863
inclination: 97.6321°
perigee height: 592 km
apogee height: 610 km
right ascension of ascending node: 304.4805°
argument of perigee: 175.2537°
revolutions per day: 14.88906153
mean anomaly at epoch: 184.8804°
orbit number at epoch: 73647

The dashed part of the orbit path shows where the satellite is in the earth's shadow,  

DLR